Time,TemperatureF,DewpointF,PressureIn,WindDirection,WindDirectionDegrees,WindSpeedMPH,WindSpeedGustMPH,Humidity,HourlyPrecipIn,Conditions,Clouds,dailyrainin,SoftwareType,DateUTC
2013-11-25 00:01:00,27.4,15.7,30.51,West,270,0.0,1.0,61,0.00,,---,0.00,VWS V14.00,2013-11-25 05:01:00,
2013-11-25 00:06:00,27.4,15.7,30.51,West,270,0.0,1.0,61,0.00,,---,0.00,VWS V14.00,2013-11-25 05:06:00,
2013-11-25 00:11:00,27.4,16.1,30.50,West,269,0.0,0.0,62,0.00,,---,0.00,VWS V14.00,2013-11-25 05:11:00,
2013-11-25 00:16:00,27.3,17.5,30.50,West,269,0.0,0.0,66,0.00,,---,0.00,VWS V14.00,2013-11-25 05:16:00,
2013-11-25 00:21:00,27.3,16.4,30.50,West,270,0.0,0.0,63,0.00,,---,0.00,VWS V14.00,2013-11-25 05:21:00,
2013-11-25 00:26:00,27.2,16.3,30.50,West,270,0.0,0.0,63,0.00,,---,0.00,VWS V14.00,2013-11-25 05:26:00,
2013-11-25 00:31:00,27.1,15.8,30.50,West,270,0.0,0.0,62,0.00,,---,0.00,VWS V14.00,2013-11-25 05:31:00,
2013-11-25 00:36:00,27.0,15.7,30.50,West,270,0.0,0.0,62,0.00,,---,0.00,VWS V14.00,2013-11-25 05:36:00,
2013-11-25 00:41:00,26.9,16.7,30.50,West,269,0.0,0.0,65,0.00,,---,0.00,VWS V14.00,2013-11-25 05:41:00,
2013-11-25 00:46:00,26.7,16.5,30.50,West,269,0.0,0.0,65,0.00,,---,0.00,VWS V14.00,2013-11-25 05:46:00,
2013-11-25 00:51:00,26.5,16.0,30.49,West,269,0.0,0.0,64,0.00,,---,0.00,VWS V14.00,2013-11-25 05:51:00,
2013-11-25 00:56:00,26.4,15.9,30.49,West,269,0.0,0.0,64,0.00,,---,0.00,VWS V14.00,2013-11-25 05:56:00,
2013-11-25 01:01:00,26.3,15.8,30.50,West,269,0.0,0.0,64,0.00,,---,0.00,VWS V14.00,2013-11-25 06:01:00,
2013-11-25 01:06:00,26.3,15.8,30.49,West,271,0.0,2.0,64,0.00,,---,0.00,VWS V14.00,2013-11-25 06:06:00,
2013-11-25 01:11:00,26.2,16.1,30.49,West,271,0.0,1.0,65,0.00,,---,0.00,VWS V14.00,2013-11-25 06:11:00,
2013-11-25 01:16:00,26.2,16.1,30.50,West,271,0.0,1.0,65,0.00,,---,0.00,VWS V14.00,2013-11-25 06:16:00,
2013-11-25 01:21:00,26.1,16.3,30.50,ENE,66,0.0,3.0,66,0.00,,---,0.00,VWS V14.00,2013-11-25 06:21:00,
2013-11-25 01:26:00,26.1,16.3,30.50,ENE,65,0.0,3.0,66,0.00,,---,0.00,VWS V14.00,2013-11-25 06:26:00,
2013-11-25 01:31:00,26.1,16.0,30.50,ENE,64,0.0,3.0,65,0.00,,---,0.00,VWS V14.00,2013-11-25 06:31:00,
2013-11-25 01:36:00,26.2,15.7,30.50,NNE,14,2.0,3.0,64,0.00,,---,0.00,VWS V14.00,2013-11-25 06:36:00,
2013-11-25 01:41:00,26.2,15.3,30.49,North,360,1.0,2.0,63,0.00,,---,0.00,VWS V14.00,2013-11-25 06:41:00,
2013-11-25 01:46:00,26.3,15.1,30.50,NE,51,0.0,2.0,62,0.00,,---,0.00,VWS V14.00,2013-11-25 06:46:00,
2013-11-25 01:51:00,26.3,15.4,30.50,NE,51,0.0,2.0,63,0.00,,---,0.00,VWS V14.00,2013-11-25 06:51:00,
2013-11-25 01:56:00,26.4,15.5,30.50,NE,47,0.0,2.0,63,0.00,,---,0.00,VWS V14.00,2013-11-25 06:56:00,
2013-11-25 02:01:00,26.4,15.5,30.50,NNE,15,0.0,2.0,63,0.00,,---,0.00,VWS V14.00,2013-11-25 07:01:00,
2013-11-25 02:06:00,26.5,15.6,30.49,NNE,15,0.0,2.0,63,0.00,,---,0.00,VWS V14.00,2013-11-25 07:06:00,
2013-11-25 02:11:00,26.5,16.7,30.50,ENE,59,1.0,2.0,66,0.00,,---,0.00,VWS V14.00,2013-11-25 07:11:00,
2013-11-25 02:16:00,26.5,16.7,30.50,ENE,59,0.0,2.0,66,0.00,,---,0.00,VWS V14.00,2013-11-25 07:16:00,
2013-11-25 02:21:00,26.5,17.4,30.50,ENE,59,0.0,2.0,68,0.00,,---,0.00,VWS V14.00,2013-11-25 07:21:00,
2013-11-25 02:26:00,26.4,17.6,30.50,ENE,59,0.0,2.0,69,0.00,,---,0.00,VWS V14.00,2013-11-25 07:26:00,
2013-11-25 02:31:00,26.3,17.5,30.51,ENE,59,0.0,2.0,69,0.00,,---,0.00,VWS V14.00,2013-11-25 07:31:00,
2013-11-25 02:36:00,26.2,16.8,30.50,ENE,59,0.0,2.0,67,0.00,,---,0.00,VWS V14.00,2013-11-25 07:36:00,
2013-11-25 02:41:00,26.1,16.0,30.50,ENE,58,0.0,1.0,65,0.00,,---,0.00,VWS V14.00,2013-11-25 07:41:00,
2013-11-25 02:46:00,26.1,15.6,30.50,ENE,59,0.0,2.0,64,0.00,,---,0.00,VWS V14.00,2013-11-25 07:46:00,
2013-11-25 02:51:00,26.1,15.6,30.50,ENE,60,0.0,2.0,64,0.00,,---,0.00,VWS V14.00,2013-11-25 07:51:00,
2013-11-25 02:56:00,26.1,15.6,30.50,North,360,0.0,2.0,64,0.00,,---,0.00,VWS V14.00,2013-11-25 07:56:00,
2013-11-25 03:01:00,26.2,16.4,30.50,North,360,0.0,2.0,66,0.00,,---,0.00,VWS V14.00,2013-11-25 08:01:00,
2013-11-25 03:06:00,26.2,16.8,30.50,North,360,0.0,2.0,67,0.00,,---,0.00,VWS V14.00,2013-11-25 08:06:00,
2013-11-25 03:11:00,26.2,16.1,30.51,NW,311,0.0,3.0,65,0.00,,---,0.00,VWS V14.00,2013-11-25 08:11:00,
2013-11-25 03:16:00,26.2,15.7,30.51,NW,311,0.0,3.0,64,0.00,,---,0.00,VWS V14.00,2013-11-25 08:16:00,
2013-11-25 03:21:00,26.2,16.4,30.51,NW,311,0.0,3.0,66,0.00,,---,0.00,VWS V14.00,2013-11-25 08:21:00,
2013-11-25 03:26:00,26.2,16.4,30.51,NW,311,0.0,3.0,66,0.00,,---,0.00,VWS V14.00,2013-11-25 08:26:00,
2013-11-25 03:31:00,26.2,16.1,30.51,NW,311,0.0,3.0,65,0.00,,---,0.00,VWS V14.00,2013-11-25 08:31:00,
2013-11-25 03:36:00,26.1,15.2,30.51,NW,311,0.0,3.0,63,0.00,,---,0.00,VWS V14.00,2013-11-25 08:36:00,
2013-11-25 03:41:00,26.1,16.3,30.51,NW,311,0.0,0.0,66,0.00,,---,0.00,VWS V14.00,2013-11-25 08:41:00,
2013-11-25 03:46:00,26.2,17.1,30.51,NW,311,0.0,0.0,68,0.00,,---,0.00,VWS V14.00,2013-11-25 08:46:00,
2013-11-25 03:51:00,26.1,16.3,30.51,NW,311,0.0,0.0,66,0.00,,---,0.00,VWS V14.00,2013-11-25 08:51:00,
2013-11-25 03:56:00,26.0,16.2,30.51,NW,311,0.0,0.0,66,0.00,,---,0.00,VWS V14.00,2013-11-25 08:56:00,
2013-11-25 04:01:00,25.9,15.8,30.51,NW,311,0.0,0.0,65,0.00,,---,0.00,VWS V14.00,2013-11-25 09:01:00,
2013-11-25 04:06:00,25.8,15.0,30.51,NW,313,0.0,0.0,63,0.00,,---,0.00,VWS V14.00,2013-11-25 09:06:00,
2013-11-25 04:11:00,25.7,14.9,30.52,NW,313,1.0,1.0,63,0.00,,---,0.00,VWS V14.00,2013-11-25 09:11:00,
2013-11-25 04:16:00,25.8,14.6,30.52,NW,315,0.0,2.0,62,0.00,,---,0.00,VWS V14.00,2013-11-25 09:16:00,
2013-11-25 04:21:00,25.8,14.6,30.52,NW,316,0.0,2.0,62,0.00,,---,0.00,VWS V14.00,2013-11-25 09:21:00,
2013-11-25 04:26:00,25.8,14.2,30.52,NW,317,0.0,2.0,61,0.00,,---,0.00,VWS V14.00,2013-11-25 09:26:00,
2013-11-25 04:31:00,25.8,13.9,30.52,NW,324,0.0,3.0,60,0.00,,---,0.00,VWS V14.00,2013-11-25 09:31:00,
2013-11-25 04:36:00,25.9,14.3,30.51,NW,324,0.0,3.0,61,0.00,,---,0.00,VWS V14.00,2013-11-25 09:36:00,
2013-11-25 04:41:00,25.9,14.3,30.51,NW,319,1.0,2.0,61,0.00,,---,0.00,VWS V14.00,2013-11-25 09:41:00,
2013-11-25 04:46:00,26.0,14.0,30.51,NW,311,0.0,2.0,60,0.00,,---,0.00,VWS V14.00,2013-11-25 09:46:00,
2013-11-25 04:51:00,26.0,14.4,30.51,NW,311,0.0,2.0,61,0.00,,---,0.00,VWS V14.00,2013-11-25 09:51:00,
2013-11-25 04:56:00,26.1,14.1,30.51,NW,311,0.0,2.0,60,0.00,,---,0.00,VWS V14.00,2013-11-25 09:56:00,
2013-11-25 05:01:00,26.1,14.5,30.51,NW,311,0.0,2.0,61,0.00,,---,0.00,VWS V14.00,2013-11-25 10:01:00,
2013-11-25 05:06:00,26.1,13.8,30.51,NW,314,0.0,2.0,59,0.00,,---,0.00,VWS V14.00,2013-11-25 10:06:00,
2013-11-25 05:11:00,26.1,15.2,30.52,NW,314,0.0,0.0,63,0.00,,---,0.00,VWS V14.00,2013-11-25 10:11:00,
2013-11-25 05:16:00,26.1,16.0,30.52,NW,314,0.0,0.0,65,0.00,,---,0.00,VWS V14.00,2013-11-25 10:16:00,
2013-11-25 05:21:00,26.0,16.2,30.52,NW,314,0.0,2.0,66,0.00,,---,0.00,VWS V14.00,2013-11-25 10:21:00,
2013-11-25 05:26:00,25.8,15.0,30.52,NW,314,0.0,2.0,63,0.00,,---,0.00,VWS V14.00,2013-11-25 10:26:00,
2013-11-25 05:31:00,25.8,14.2,30.52,NW,314,0.0,2.0,61,0.00,,---,0.00,VWS V14.00,2013-11-25 10:31:00,
2013-11-25 05:36:00,25.8,15.7,30.52,NW,314,0.0,2.0,65,0.00,,---,0.00,VWS V14.00,2013-11-25 10:36:00,
2013-11-25 05:41:00,25.7,15.6,30.52,NW,313,0.0,2.0,65,0.00,,---,0.00,VWS V14.00,2013-11-25 10:41:00,
2013-11-25 05:46:00,25.6,15.5,30.52,NW,313,0.0,2.0,65,0.00,,---,0.00,VWS V14.00,2013-11-25 10:46:00,
2013-11-25 05:51:00,25.6,15.5,30.52,NW,313,0.0,2.0,65,0.00,,---,0.00,VWS V14.00,2013-11-25 10:51:00,
2013-11-25 05:56:00,25.5,16.4,30.52,NW,313,0.0,2.0,68,0.00,,---,0.00,VWS V14.00,2013-11-25 10:56:00,
2013-11-25 06:01:00,25.4,16.3,30.53,NW,313,0.0,2.0,68,0.00,,---,0.00,VWS V14.00,2013-11-25 11:01:00,
2013-11-25 06:06:00,25.2,16.1,30.52,NW,315,1.0,2.0,68,0.00,,---,0.00,VWS V14.00,2013-11-25 11:06:00,
2013-11-25 06:11:00,25.1,13.9,30.53,NW,318,0.0,1.0,62,0.00,,---,0.00,VWS V14.00,2013-11-25 11:11:00,
2013-11-25 06:16:00,25.1,13.6,30.53,NW,319,0.0,1.0,61,0.00,,---,0.00,VWS V14.00,2013-11-25 11:16:00,
2013-11-25 06:21:00,25.1,15.7,30.53,NW,319,0.0,1.0,67,0.00,,---,0.00,VWS V14.00,2013-11-25 11:21:00,
2013-11-25 06:26:00,25.1,15.4,30.53,NW,311,1.0,3.0,66,0.00,,---,0.00,VWS V14.00,2013-11-25 11:26:00,
2013-11-25 06:31:00,24.9,14.8,30.53,NW,311,0.0,3.0,65,0.00,,---,0.00,VWS V14.00,2013-11-25 11:31:00,
2013-11-25 06:36:00,24.9,15.2,30.53,NW,311,0.0,3.0,66,0.00,,---,0.00,VWS V14.00,2013-11-25 11:36:00,
2013-11-25 06:41:00,24.9,15.9,30.53,NW,312,0.0,0.0,68,0.00,,---,0.00,VWS V14.00,2013-11-25 11:41:00,
2013-11-25 06:46:00,24.9,15.9,30.53,NW,312,0.0,0.0,68,0.00,,---,0.00,VWS V14.00,2013-11-25 11:46:00,
2013-11-25 06:51:00,24.8,16.1,30.53,NW,311,0.0,0.0,69,0.00,,---,0.00,VWS V14.00,2013-11-25 11:51:00,
2013-11-25 06:56:00,24.8,16.4,30.54,NW,312,0.0,0.0,70,0.00,,---,0.00,VWS V14.00,2013-11-25 11:56:00,
2013-11-25 07:01:00,24.8,18.3,30.54,NW,312,0.0,0.0,76,0.00,,---,0.00,VWS V14.00,2013-11-25 12:01:00,
2013-11-25 07:06:00,24.7,16.0,30.54,NW,312,0.0,0.0,69,0.00,,---,0.00,VWS V14.00,2013-11-25 12:06:00,
2013-11-25 07:11:00,24.7,15.3,30.54,NW,312,0.0,0.0,67,0.00,,---,0.00,VWS V14.00,2013-11-25 12:11:00,
2013-11-25 07:16:00,24.6,15.6,30.55,NW,311,0.0,0.0,68,0.00,,---,0.00,VWS V14.00,2013-11-25 12:16:00,
2013-11-25 07:21:00,24.5,15.5,30.55,NW,312,0.0,0.0,68,0.00,,---,0.00,VWS V14.00,2013-11-25 12:21:00,
2013-11-25 07:26:00,24.5,15.5,30.55,NW,312,0.0,0.0,68,0.00,,---,0.00,VWS V14.00,2013-11-25 12:26:00,
2013-11-25 07:31:00,24.5,16.1,30.55,NW,311,0.0,0.0,70,0.00,,---,0.00,VWS V14.00,2013-11-25 12:31:00,
2013-11-25 07:36:00,24.5,15.5,30.55,NW,311,0.0,0.0,68,0.00,,---,0.00,VWS V14.00,2013-11-25 12:36:00,
2013-11-25 07:41:00,24.6,14.5,30.55,NW,312,0.0,0.0,65,0.00,,---,0.00,VWS V14.00,2013-11-25 12:41:00,
2013-11-25 07:46:00,24.8,14.4,30.55,NW,312,0.0,1.0,64,0.00,,---,0.00,VWS V14.00,2013-11-25 12:46:00,
2013-11-25 07:51:00,25.1,15.4,30.55,NW,312,0.0,2.0,66,0.00,,---,0.00,VWS V14.00,2013-11-25 12:51:00,
2013-11-25 07:56:00,25.3,15.2,30.55,NW,312,0.0,2.0,65,0.00,,---,0.00,VWS V14.00,2013-11-25 12:56:00,
2013-11-25 08:01:00,25.5,15.0,30.54,NW,312,0.0,2.0,64,0.00,,---,0.00,VWS V14.00,2013-11-25 13:01:00,
2013-11-25 08:06:00,25.8,15.3,30.54,NW,312,0.0,2.0,64,0.00,,---,0.00,VWS V14.00,2013-11-25 13:06:00,
2013-11-25 08:11:00,26.1,15.2,30.55,NW,311,0.0,0.0,63,0.00,,---,0.00,VWS V14.00,2013-11-25 13:11:00,
2013-11-25 08:16:00,26.2,16.4,30.55,NW,312,0.0,1.0,66,0.00,,---,0.00,VWS V14.00,2013-11-25 13:16:00,
2013-11-25 08:21:00,26.3,13.6,30.55,NW,320,0.0,2.0,58,0.00,,---,0.00,VWS V14.00,2013-11-25 13:21:00,
2013-11-25 08:26:00,26.5,14.1,30.55,ENE,78,0.0,3.0,59,0.00,,---,0.00,VWS V14.00,2013-11-25 13:26:00,
2013-11-25 08:31:00,26.7,13.9,30.55,ENE,78,0.0,3.0,58,0.00,,---,0.00,VWS V14.00,2013-11-25 13:31:00,
2013-11-25 08:36:00,27.0,14.6,30.55,East,79,0.0,3.0,59,0.00,,---,0.00,VWS V14.00,2013-11-25 13:36:00,
2013-11-25 08:41:00,27.3,14.1,30.55,ENE,77,0.0,2.0,57,0.00,,---,0.00,VWS V14.00,2013-11-25 13:41:00,
2013-11-25 08:46:00,27.5,13.9,30.55,SE,141,0.0,2.0,56,0.00,,---,0.00,VWS V14.00,2013-11-25 13:46:00,
2013-11-25 08:51:00,27.6,14.0,30.55,SE,142,0.0,2.0,56,0.00,,---,0.00,VWS V14.00,2013-11-25 13:51:00,
2013-11-25 08:56:00,27.7,15.6,30.55,SE,142,0.0,2.0,60,0.00,,---,0.00,VWS V14.00,2013-11-25 13:56:00,
2013-11-25 09:01:00,27.8,16.5,30.55,SE,141,0.0,2.0,62,0.00,,---,0.00,VWS V14.00,2013-11-25 14:01:00,
2013-11-25 09:06:00,27.7,14.9,30.56,SSE,148,0.0,5.0,58,0.00,,---,0.00,VWS V14.00,2013-11-25 14:06:00,
2013-11-25 09:11:00,27.9,14.6,30.56,SSE,148,0.0,0.0,57,0.00,,---,0.00,VWS V14.00,2013-11-25 14:11:00,
2013-11-25 09:16:00,28.2,14.9,30.56,SSW,200,1.0,1.0,57,0.00,,---,0.00,VWS V14.00,2013-11-25 14:16:00,
2013-11-25 09:21:00,28.5,14.4,30.56,SSW,200,0.0,2.0,55,0.00,,---,0.00,VWS V14.00,2013-11-25 14:21:00,
2013-11-25 09:26:00,29.0,15.3,30.56,South,172,1.0,2.0,56,0.00,,---,0.00,VWS V14.00,2013-11-25 14:26:00,
2013-11-25 09:31:00,29.3,14.7,30.56,South,171,0.0,3.0,54,0.00,,---,0.00,VWS V14.00,2013-11-25 14:31:00,
2013-11-25 09:36:00,29.3,13.9,30.55,SSE,154,1.0,4.0,52,0.00,,---,0.00,VWS V14.00,2013-11-25 14:36:00,
2013-11-25 09:41:00,29.3,13.0,30.55,ESE,102,2.0,4.0,50,0.00,,---,0.00,VWS V14.00,2013-11-25 14:41:00,
2013-11-25 09:46:00,29.4,13.1,30.55,ESE,115,2.0,4.0,50,0.00,,---,0.00,VWS V14.00,2013-11-25 14:46:00,
2013-11-25 09:51:00,29.7,13.4,30.55,SSE,157,1.0,5.0,50,0.00,,---,0.00,VWS V14.00,2013-11-25 14:51:00,
2013-11-25 09:56:00,29.9,12.6,30.54,SSE,154,0.0,5.0,48,0.00,,---,0.00,VWS V14.00,2013-11-25 14:56:00,
2013-11-25 10:01:00,30.1,13.3,30.54,SSE,150,0.0,5.0,49,0.00,,---,0.00,VWS V14.00,2013-11-25 15:01:00,
2013-11-25 10:06:00,30.3,12.5,30.54,NE,53,0.0,6.0,47,0.00,,---,0.00,VWS V14.00,2013-11-25 15:06:00,
2013-11-25 10:11:00,30.5,12.7,30.53,SE,132,0.0,3.0,47,0.00,,---,0.00,VWS V14.00,2013-11-25 15:11:00,
2013-11-25 10:16:00,30.8,13.4,30.53,SE,131,0.0,4.0,48,0.00,,---,0.00,VWS V14.00,2013-11-25 15:16:00,
2013-11-25 10:21:00,31.1,12.2,30.53,ENE,63,2.0,7.0,45,0.00,,---,0.00,VWS V14.00,2013-11-25 15:21:00,
2013-11-25 10:26:00,31.4,13.0,30.53,South,175,0.0,7.0,46,0.00,,---,0.00,VWS V14.00,2013-11-25 15:26:00,
2013-11-25 10:31:00,31.7,12.3,30.53,NE,42,0.0,7.0,44,0.00,,---,0.00,VWS V14.00,2013-11-25 15:31:00,
2013-11-25 10:36:00,32.1,13.2,30.52,SSW,197,0.0,7.0,45,0.00,,---,0.00,VWS V14.00,2013-11-25 15:36:00,
2013-11-25 10:41:00,32.6,12.6,30.52,ESE,116,0.0,4.0,43,0.00,,---,0.00,VWS V14.00,2013-11-25 15:41:00,
2013-11-25 10:46:00,32.6,11.5,30.52,NW,307,2.0,5.0,41,0.00,,---,0.00,VWS V14.00,2013-11-25 15:46:00,
2013-11-25 10:51:00,32.5,12.0,30.52,NW,325,0.0,5.0,42,0.00,,---,0.00,VWS V14.00,2013-11-25 15:51:00,
2013-11-25 10:56:00,32.8,12.2,30.52,SSW,206,0.0,5.0,42,0.00,,---,0.00,VWS V14.00,2013-11-25 15:56:00,
2013-11-25 11:01:00,33.1,12.0,30.52,NNW,339,1.0,5.0,41,0.00,,---,0.00,VWS V14.00,2013-11-25 16:01:00,
2013-11-25 11:06:00,33.1,11.4,30.52,East,84,0.0,5.0,40,0.00,,---,0.00,VWS V14.00,2013-11-25 16:06:00,
2013-11-25 11:11:00,33.3,12.2,30.51,WSW,257,2.0,3.0,41,0.00,,---,0.00,VWS V14.00,2013-11-25 16:11:00,
2013-11-25 11:16:00,33.5,12.9,30.52,SW,224,0.0,4.0,42,0.00,,---,0.00,VWS V14.00,2013-11-25 16:16:00,
2013-11-25 11:21:00,33.7,12.0,30.51,West,275,0.0,4.0,40,0.00,,---,0.00,VWS V14.00,2013-11-25 16:21:00,
2013-11-25 11:26:00,33.9,12.1,30.51,ENE,63,0.0,4.0,40,0.00,,---,0.00,VWS V14.00,2013-11-25 16:26:00,
2013-11-25 11:31:00,34.3,13.1,30.51,SSE,155,0.0,4.0,41,0.00,,---,0.00,VWS V14.00,2013-11-25 16:31:00,
2013-11-25 11:36:00,34.5,12.1,30.50,ENE,64,0.0,5.0,39,0.00,,---,0.00,VWS V14.00,2013-11-25 16:36:00,
2013-11-25 11:41:00,34.6,12.8,30.49,SSE,165,0.0,3.0,40,0.00,,---,0.00,VWS V14.00,2013-11-25 16:41:00,
2013-11-25 11:46:00,35.0,12.6,30.49,NE,44,2.0,3.0,39,0.00,,---,0.00,VWS V14.00,2013-11-25 16:46:00,
2013-11-25 11:51:00,35.3,13.4,30.49,NE,44,0.0,3.0,40,0.00,,---,0.00,VWS V14.00,2013-11-25 16:51:00,
2013-11-25 11:56:00,35.4,12.9,30.48,NE,52,0.0,4.0,39,0.00,,---,0.00,VWS V14.00,2013-11-25 16:56:00,
2013-11-25 12:01:00,35.4,12.9,30.47,South,171,0.0,5.0,39,0.00,,---,0.00,VWS V14.00,2013-11-25 17:01:00,
2013-11-25 12:06:00,35.6,13.7,30.47,West,272,1.0,5.0,40,0.00,,---,0.00,VWS V14.00,2013-11-25 17:06:00,
2013-11-25 12:11:00,35.9,13.9,30.47,NW,323,0.0,5.0,40,0.00,,---,0.00,VWS V14.00,2013-11-25 17:11:00,
2013-11-25 12:16:00,36.0,13.5,30.46,WSW,251,0.0,5.0,39,0.00,,---,0.00,VWS V14.00,2013-11-25 17:16:00,
2013-11-25 12:21:00,36.3,14.9,30.47,East,90,0.0,5.0,41,0.00,,---,0.00,VWS V14.00,2013-11-25 17:21:00,
2013-11-25 12:26:00,36.6,14.6,30.47,ENE,78,0.0,5.0,40,0.00,,---,0.00,VWS V14.00,2013-11-25 17:26:00,
2013-11-25 12:31:00,37.1,14.4,30.46,ESE,123,1.0,5.0,39,0.00,,---,0.00,VWS V14.00,2013-11-25 17:31:00,
2013-11-25 12:36:00,37.9,15.8,30.45,WSW,251,4.0,5.0,40,0.00,,---,0.00,VWS V14.00,2013-11-25 17:36:00,
2013-11-25 12:41:00,39.7,18.0,30.45,ENE,65,0.0,5.0,41,0.00,,---,0.00,VWS V14.00,2013-11-25 17:41:00,
2013-11-25 12:46:00,40.4,16.8,30.44,West,266,0.0,5.0,38,0.00,,---,0.00,VWS V14.00,2013-11-25 17:46:00,
2013-11-25 12:51:00,40.4,15.6,30.44,East,80,3.0,5.0,36,0.00,,---,0.00,VWS V14.00,2013-11-25 17:51:00,
2013-11-25 12:56:00,39.8,14.4,30.44,ESE,105,1.0,5.0,35,0.00,,---,0.00,VWS V14.00,2013-11-25 17:56:00,
2013-11-25 13:01:00,39.6,15.5,30.44,ESE,105,0.0,5.0,37,0.00,,---,0.00,VWS V14.00,2013-11-25 18:01:00,
2013-11-25 13:06:00,39.2,14.5,30.44,ENE,76,0.0,5.0,36,0.00,,---,0.00,VWS V14.00,2013-11-25 18:06:00,
2013-11-25 13:11:00,38.8,14.8,30.42,NNE,14,0.0,5.0,37,0.00,,---,0.00,VWS V14.00,2013-11-25 18:11:00,
2013-11-25 13:16:00,38.6,14.6,30.42,WSW,256,0.0,5.0,37,0.00,,---,0.00,VWS V14.00,2013-11-25 18:16:00,
2013-11-25 13:21:00,38.3,14.3,30.43,WSW,255,0.0,5.0,37,0.00,,---,0.00,VWS V14.00,2013-11-25 18:21:00,
2013-11-25 13:26:00,38.2,15.4,30.43,South,186,0.0,5.0,39,0.00,,---,0.00,VWS V14.00,2013-11-25 18:26:00,
2013-11-25 13:31:00,38.2,15.4,30.43,ESE,107,0.0,5.0,39,0.00,,---,0.00,VWS V14.00,2013-11-25 18:31:00,
2013-11-25 13:36:00,38.3,15.5,30.42,East,95,2.0,5.0,39,0.00,,---,0.00,VWS V14.00,2013-11-25 18:36:00,
2013-11-25 13:41:00,38.3,14.3,30.42,ESE,113,0.0,1.0,37,0.00,,---,0.00,VWS V14.00,2013-11-25 18:41:00,
2013-11-25 13:46:00,38.3,14.9,30.42,SSE,165,0.0,3.0,38,0.00,,---,0.00,VWS V14.00,2013-11-25 18:46:00,
2013-11-25 13:51:00,38.3,14.9,30.42,East,82,0.0,3.0,38,0.00,,---,0.00,VWS V14.00,2013-11-25 18:51:00,
2013-11-25 13:56:00,38.2,14.8,30.42,NNE,15,0.0,3.0,38,0.00,,---,0.00,VWS V14.00,2013-11-25 18:56:00,
2013-11-25 14:01:00,38.3,15.5,30.41,West,273,0.0,3.0,39,0.00,,---,0.00,VWS V14.00,2013-11-25 19:01:00,
2013-11-25 14:06:00,38.3,15.5,30.41,SW,221,1.0,3.0,39,0.00,,---,0.00,VWS V14.00,2013-11-25 19:06:00,
2013-11-25 14:11:00,38.3,15.5,30.41,SW,219,0.0,0.0,39,0.00,,---,0.00,VWS V14.00,2013-11-25 19:11:00,
2013-11-25 14:16:00,38.4,15.6,30.41,SW,219,0.0,0.0,39,0.00,,---,0.00,VWS V14.00,2013-11-25 19:16:00,
2013-11-25 14:21:00,38.4,15.6,30.40,SW,219,0.0,0.0,39,0.00,,---,0.00,VWS V14.00,2013-11-25 19:21:00,
2013-11-25 14:26:00,38.6,15.8,30.40,SW,220,0.0,1.0,39,0.00,,---,0.00,VWS V14.00,2013-11-25 19:26:00,
2013-11-25 14:31:00,38.7,15.9,30.40,SW,221,0.0,1.0,39,0.00,,---,0.00,VWS V14.00,2013-11-25 19:31:00,
2013-11-25 14:36:00,38.9,16.1,30.40,SW,218,1.0,3.0,39,0.00,,---,0.00,VWS V14.00,2013-11-25 19:36:00,
2013-11-25 14:41:00,39.0,16.2,30.40,SW,215,0.0,0.0,39,0.00,,---,0.00,VWS V14.00,2013-11-25 19:41:00,
2013-11-25 14:46:00,39.1,15.6,30.40,SW,216,0.0,1.0,38,0.00,,---,0.00,VWS V14.00,2013-11-25 19:46:00,
2013-11-25 14:51:00,39.1,16.2,30.40,SW,216,0.0,1.0,39,0.00,,---,0.00,VWS V14.00,2013-11-25 19:51:00,
2013-11-25 14:56:00,39.3,16.4,30.40,SW,216,0.0,1.0,39,0.00,,---,0.00,VWS V14.00,2013-11-25 19:56:00,
2013-11-25 15:01:00,39.3,15.2,30.40,SW,215,1.0,1.0,37,0.00,,---,0.00,VWS V14.00,2013-11-25 20:01:00,
2013-11-25 15:06:00,39.3,15.8,30.40,SE,145,0.0,2.0,38,0.00,,---,0.00,VWS V14.00,2013-11-25 20:06:00,
2013-11-25 15:11:00,39.5,17.2,30.40,SE,145,0.0,1.0,40,0.00,,---,0.00,VWS V14.00,2013-11-25 20:11:00,
2013-11-25 15:16:00,39.8,16.9,30.40,SE,145,0.0,1.0,39,0.00,,---,0.00,VWS V14.00,2013-11-25 20:16:00,
2013-11-25 15:21:00,39.9,17.0,30.40,SE,145,0.0,1.0,39,0.00,,---,0.00,VWS V14.00,2013-11-25 20:21:00,
2013-11-25 15:26:00,39.9,16.4,30.39,SE,145,0.0,1.0,38,0.00,,---,0.00,VWS V14.00,2013-11-25 20:26:00,
2013-11-25 15:31:00,39.9,15.8,30.39,ENE,57,0.0,4.0,37,0.00,,---,0.00,VWS V14.00,2013-11-25 20:31:00,
2013-11-25 15:36:00,39.9,16.4,30.39,ENE,57,0.0,4.0,38,0.00,,---,0.00,VWS V14.00,2013-11-25 20:36:00,
2013-11-25 15:41:00,39.9,17.0,30.39,ENE,57,0.0,0.0,39,0.00,,---,0.00,VWS V14.00,2013-11-25 20:41:00,
2013-11-25 15:46:00,39.9,16.4,30.39,ENE,57,0.0,2.0,38,0.00,,---,0.00,VWS V14.00,2013-11-25 20:46:00,
2013-11-25 15:51:00,39.8,16.9,30.39,ENE,57,0.0,2.0,39,0.00,,---,0.00,VWS V14.00,2013-11-25 20:51:00,
2013-11-25 15:56:00,39.8,18.6,30.39,ENE,57,0.0,2.0,42,0.00,,---,0.00,VWS V14.00,2013-11-25 20:56:00,
2013-11-25 16:01:00,39.8,16.9,30.39,ENE,57,0.0,2.0,39,0.00,,---,0.00,VWS V14.00,2013-11-25 21:01:00,
2013-11-25 16:06:00,39.8,16.3,30.38,ENE,57,0.0,2.0,38,0.00,,---,0.00,VWS V14.00,2013-11-25 21:06:00,
2013-11-25 16:11:00,39.7,17.4,30.39,ENE,57,0.0,0.0,40,0.00,,---,0.00,VWS V14.00,2013-11-25 21:11:00,
2013-11-25 16:16:00,39.7,17.4,30.39,ENE,60,0.0,1.0,40,0.00,,---,0.00,VWS V14.00,2013-11-25 21:16:00,
2013-11-25 16:21:00,39.7,17.4,30.39,ENE,60,0.0,1.0,40,0.00,,---,0.00,VWS V14.00,2013-11-25 21:21:00,
2013-11-25 16:26:00,39.6,17.9,30.39,ENE,60,0.0,1.0,41,0.00,,---,0.00,VWS V14.00,2013-11-25 21:26:00,
2013-11-25 16:31:00,39.6,17.3,30.39,ENE,60,0.0,2.0,40,0.00,,---,0.00,VWS V14.00,2013-11-25 21:31:00,
2013-11-25 16:36:00,39.5,14.8,30.39,SW,226,0.0,2.0,36,0.00,,---,0.00,VWS V14.00,2013-11-25 21:36:00,
2013-11-25 16:41:00,39.5,13.5,30.39,North,5,0.0,2.0,34,0.00,,---,0.00,VWS V14.00,2013-11-25 21:41:00,
2013-11-25 16:46:00,39.5,13.5,30.39,North,360,0.0,2.0,34,0.00,,---,0.00,VWS V14.00,2013-11-25 21:46:00,
2013-11-25 16:51:00,39.5,14.1,30.39,WNW,300,0.0,2.0,35,0.00,,---,0.00,VWS V14.00,2013-11-25 21:51:00,
2013-11-25 16:56:00,39.5,16.0,30.39,WNW,302,1.0,2.0,38,0.00,,---,0.00,VWS V14.00,2013-11-25 21:56:00,
2013-11-25 17:01:00,39.5,16.0,30.38,WNW,302,0.0,2.0,38,0.00,,---,0.00,VWS V14.00,2013-11-25 22:01:00,
2013-11-25 17:06:00,39.5,17.2,30.38,WNW,287,0.0,3.0,40,0.00,,---,0.00,VWS V14.00,2013-11-25 22:06:00,
2013-11-25 17:11:00,39.5,16.0,30.38,WNW,288,0.0,0.0,38,0.00,,---,0.00,VWS V14.00,2013-11-25 22:11:00,
2013-11-25 17:16:00,39.4,17.1,30.39,WNW,287,0.0,0.0,40,0.00,,---,0.00,VWS V14.00,2013-11-25 22:16:00,
2013-11-25 17:21:00,39.4,16.5,30.38,WNW,283,2.0,3.0,39,0.00,,---,0.00,VWS V14.00,2013-11-25 22:21:00,
2013-11-25 17:26:00,39.3,18.1,30.39,WNW,283,0.0,3.0,42,0.00,,---,0.00,VWS V14.00,2013-11-25 22:26:00,
2013-11-25 17:31:00,39.2,15.7,30.38,WNW,283,1.0,3.0,38,0.00,,---,0.00,VWS V14.00,2013-11-25 22:31:00,
2013-11-25 17:36:00,39.1,13.8,30.38,WNW,283,0.0,3.0,35,0.00,,---,0.00,VWS V14.00,2013-11-25 22:36:00,
2013-11-25 17:41:00,39.1,15.0,30.38,WNW,283,0.0,0.0,37,0.00,,---,0.00,VWS V14.00,2013-11-25 22:41:00,
2013-11-25 17:46:00,39.1,15.0,30.38,ENE,67,2.0,2.0,37,0.00,,---,0.00,VWS V14.00,2013-11-25 22:46:00,
2013-11-25 17:51:00,39.1,16.2,30.38,ENE,67,0.0,2.0,39,0.00,,---,0.00,VWS V14.00,2013-11-25 22:51:00,
2013-11-25 17:56:00,39.1,15.6,30.38,WNW,302,0.0,3.0,38,0.00,,---,0.00,VWS V14.00,2013-11-25 22:56:00,
2013-11-25 18:01:00,39.1,18.0,30.38,WNW,288,0.0,3.0,42,0.00,,---,0.00,VWS V14.00,2013-11-25 23:01:00,
2013-11-25 18:06:00,39.1,17.4,30.38,WNW,288,0.0,3.0,41,0.00,,---,0.00,VWS V14.00,2013-11-25 23:06:00,
2013-11-25 18:11:00,39.2,17.5,30.38,NW,305,0.0,2.0,41,0.00,,---,0.00,VWS V14.00,2013-11-25 23:11:00,
2013-11-25 18:16:00,39.3,18.1,30.38,NNW,331,0.0,4.0,42,0.00,,---,0.00,VWS V14.00,2013-11-25 23:16:00,
2013-11-25 18:21:00,39.4,18.2,30.38,NNW,331,0.0,4.0,42,0.00,,---,0.00,VWS V14.00,2013-11-25 23:21:00,
2013-11-25 18:26:00,39.4,19.3,30.38,NNW,327,0.0,4.0,44,0.00,,---,0.00,VWS V14.00,2013-11-25 23:26:00,
2013-11-25 18:31:00,39.5,19.4,30.38,SW,224,1.0,4.0,44,0.00,,---,0.00,VWS V14.00,2013-11-25 23:31:00,
2013-11-25 18:36:00,39.5,19.4,30.39,WNW,291,0.0,4.0,44,0.00,,---,0.00,VWS V14.00,2013-11-25 23:36:00,
2013-11-25 18:41:00,39.6,21.5,30.39,WNW,291,0.0,0.0,48,0.00,,---,0.00,VWS V14.00,2013-11-25 23:41:00,
2013-11-25 18:46:00,39.6,20.5,30.39,WNW,290,0.0,1.0,46,0.00,,---,0.00,VWS V14.00,2013-11-25 23:46:00,
2013-11-25 18:51:00,39.6,21.0,30.39,WNW,286,0.0,3.0,47,0.00,,---,0.00,VWS V14.00,2013-11-25 23:51:00,
2013-11-25 18:56:00,39.6,22.0,30.39,WNW,286,0.0,3.0,49,0.00,,---,0.00,VWS V14.00,2013-11-25 23:56:00,
2013-11-25 19:01:00,39.6,21.5,30.39,WNW,286,0.0,3.0,48,0.00,,---,0.00,VWS V14.00,2013-11-26 00:01:00,
2013-11-25 19:06:00,39.4,19.8,30.39,WNW,286,0.0,3.0,45,0.00,,---,0.00,VWS V14.00,2013-11-26 00:06:00,
2013-11-25 19:11:00,39.2,19.7,30.39,WNW,286,0.0,2.0,45,0.00,,---,0.00,VWS V14.00,2013-11-26 00:11:00,
2013-11-25 19:16:00,39.0,19.5,30.39,WNW,286,0.0,2.0,45,0.00,,---,0.00,VWS V14.00,2013-11-26 00:16:00,
2013-11-25 19:21:00,38.8,19.3,30.39,WNW,286,0.0,2.0,45,0.00,,---,0.00,VWS V14.00,2013-11-26 00:21:00,
2013-11-25 19:26:00,38.8,21.8,30.38,WNW,288,0.0,2.0,50,0.00,,---,0.00,VWS V14.00,2013-11-26 00:26:00,
2013-11-25 19:31:00,38.8,22.7,30.38,WNW,288,1.0,2.0,52,0.00,,---,0.00,VWS V14.00,2013-11-26 00:31:00,
2013-11-25 19:36:00,38.8,22.7,30.38,WNW,288,0.0,2.0,52,0.00,,---,0.00,VWS V14.00,2013-11-26 00:36:00,
2013-11-25 19:41:00,38.8,23.6,30.37,WNW,289,0.0,1.0,54,0.00,,---,0.00,VWS V14.00,2013-11-26 00:41:00,
2013-11-25 19:46:00,38.8,23.6,30.37,WNW,289,0.0,2.0,54,0.00,,---,0.00,VWS V14.00,2013-11-26 00:46:00,
2013-11-25 19:51:00,38.8,24.0,30.37,WNW,288,0.0,2.0,55,0.00,,---,0.00,VWS V14.00,2013-11-26 00:51:00,
2013-11-25 19:56:00,38.8,24.0,30.38,WNW,289,1.0,2.0,55,0.00,,---,0.00,VWS V14.00,2013-11-26 00:56:00,
2013-11-25 20:01:00,38.8,23.6,30.38,WNW,289,0.0,2.0,54,0.00,,---,0.00,VWS V14.00,2013-11-26 01:01:00,
2013-11-25 20:06:00,38.8,24.9,30.37,WNW,289,0.0,2.0,57,0.00,,---,0.00,VWS V14.00,2013-11-26 01:06:00,
2013-11-25 20:11:00,38.8,24.0,30.36,WNW,288,0.0,0.0,55,0.00,,---,0.00,VWS V14.00,2013-11-26 01:11:00,
2013-11-25 20:16:00,38.8,24.9,30.37,WNW,290,0.0,2.0,57,0.00,,---,0.00,VWS V14.00,2013-11-26 01:16:00,
2013-11-25 20:21:00,38.8,25.7,30.37,WNW,291,0.0,2.0,59,0.00,,---,0.00,VWS V14.00,2013-11-26 01:21:00,
2013-11-25 20:26:00,38.7,28.7,30.36,WNW,291,0.0,3.0,67,0.00,,---,0.00,VWS V14.00,2013-11-26 01:26:00,
2013-11-25 20:31:00,38.3,29.4,30.36,WNW,290,0.0,4.0,70,0.00,,---,0.00,VWS V14.00,2013-11-26 01:31:00,
2013-11-25 20:36:00,38.0,30.1,30.37,WNW,290,0.0,4.0,73,0.00,,---,0.00,VWS V14.00,2013-11-26 01:36:00,
2013-11-25 20:41:00,37.6,30.4,30.36,WNW,290,0.0,0.0,75,0.00,,---,0.00,VWS V14.00,2013-11-26 01:41:00,
2013-11-25 20:46:00,37.3,29.5,30.37,WNW,290,0.0,0.0,73,0.00,,---,0.00,VWS V14.00,2013-11-26 01:46:00,
2013-11-25 20:51:00,37.0,29.2,30.36,WNW,290,2.0,2.0,73,0.00,,---,0.00,VWS V14.00,2013-11-26 01:51:00,
2013-11-25 20:56:00,36.8,29.3,30.36,WNW,290,0.0,2.0,74,0.00,,---,0.00,VWS V14.00,2013-11-26 01:56:00,
2013-11-25 21:01:00,36.7,29.9,30.36,WNW,290,0.0,2.0,76,0.00,,---,0.00,VWS V14.00,2013-11-26 02:01:00,
2013-11-25 21:06:00,36.6,29.8,30.36,WNW,290,0.0,2.0,76,0.00,,---,0.00,VWS V14.00,2013-11-26 02:06:00,
2013-11-25 21:11:00,36.4,29.9,30.34,WNW,290,0.0,1.0,77,0.00,,---,0.00,VWS V14.00,2013-11-26 02:11:00,
2013-11-25 21:16:00,36.2,29.0,30.34,WNW,291,0.0,2.0,75,0.00,,---,0.00,VWS V14.00,2013-11-26 02:16:00,
2013-11-25 21:21:00,36.2,28.7,30.34,NW,318,1.0,6.0,74,0.00,,---,0.00,VWS V14.00,2013-11-26 02:21:00,
2013-11-25 21:26:00,36.1,29.3,30.33,WNW,294,0.0,6.0,76,0.00,,---,0.00,VWS V14.00,2013-11-26 02:26:00,
2013-11-25 21:31:00,36.1,29.3,30.34,WNW,298,0.0,6.0,76,0.00,,---,0.00,VWS V14.00,2013-11-26 02:31:00,
2013-11-25 21:36:00,36.1,29.0,30.34,West,277,3.0,6.0,75,0.00,,---,0.00,VWS V14.00,2013-11-26 02:36:00,
2013-11-25 21:41:00,36.2,29.0,30.33,NW,311,4.0,5.0,75,0.00,,---,0.00,VWS V14.00,2013-11-26 02:41:00,
2013-11-25 21:46:00,36.2,29.0,30.33,WNW,297,0.0,5.0,75,0.00,,---,0.00,VWS V14.00,2013-11-26 02:46:00,
2013-11-25 21:51:00,36.2,30.0,30.32,WNW,297,0.0,5.0,78,0.00,,---,0.00,VWS V14.00,2013-11-26 02:51:00,
2013-11-25 21:56:00,36.2,30.6,30.32,SW,233,0.0,5.0,80,0.00,,---,0.00,VWS V14.00,2013-11-26 02:56:00,
2013-11-25 22:01:00,36.0,30.4,30.32,SW,233,0.0,5.0,80,0.00,,---,0.00,VWS V14.00,2013-11-26 03:01:00,
2013-11-25 22:06:00,35.9,30.6,30.33,WSW,244,0.0,5.0,81,0.00,,---,0.00,VWS V14.00,2013-11-26 03:06:00,
2013-11-25 22:11:00,35.8,30.5,30.32,ENE,59,0.0,4.0,81,0.00,,---,0.00,VWS V14.00,2013-11-26 03:11:00,
2013-11-25 22:16:00,35.8,30.5,30.32,SSW,201,0.0,4.0,81,0.01,,---,0.01,VWS V14.00,2013-11-26 03:16:00,
2013-11-25 22:21:00,35.9,31.2,30.32,WNW,283,1.0,4.0,83,0.01,,---,0.01,VWS V14.00,2013-11-26 03:21:00,
2013-11-25 22:26:00,35.9,31.2,30.31,WNW,283,0.0,4.0,83,0.01,,---,0.01,VWS V14.00,2013-11-26 03:26:00,
2013-11-25 22:31:00,35.9,31.2,30.31,WNW,284,0.0,4.0,83,0.01,,---,0.01,VWS V14.00,2013-11-26 03:31:00,
2013-11-25 22:36:00,35.9,31.5,30.31,WNW,284,0.0,4.0,84,0.01,,---,0.01,VWS V14.00,2013-11-26 03:36:00,
2013-11-25 22:41:00,36.0,31.9,30.30,WNW,283,0.0,0.0,85,0.01,,---,0.01,VWS V14.00,2013-11-26 03:41:00,
2013-11-25 22:46:00,35.9,31.5,30.31,WNW,284,0.0,1.0,84,0.01,,---,0.01,VWS V14.00,2013-11-26 03:46:00,
2013-11-25 22:51:00,35.9,31.8,30.30,WNW,284,1.0,2.0,85,0.01,,---,0.01,VWS V14.00,2013-11-26 03:51:00,
2013-11-25 22:56:00,35.7,31.6,30.30,WNW,284,0.0,2.0,85,0.01,,---,0.01,VWS V14.00,2013-11-26 03:56:00,
2013-11-25 23:01:00,35.6,31.8,30.30,West,281,0.0,2.0,86,0.01,,---,0.01,VWS V14.00,2013-11-26 04:01:00,
2013-11-25 23:06:00,35.5,31.7,30.30,West,281,0.0,2.0,86,0.01,,---,0.01,VWS V14.00,2013-11-26 04:06:00,
2013-11-25 23:11:00,35.5,31.7,30.28,West,281,0.0,0.0,86,0.01,,---,0.01,VWS V14.00,2013-11-26 04:11:00,
2013-11-25 23:16:00,35.4,31.9,30.29,West,281,0.0,1.0,87,0.01,,---,0.01,VWS V14.00,2013-11-26 04:16:00,
2013-11-25 23:21:00,35.3,31.8,30.29,West,281,0.0,1.0,87,0.01,,---,0.01,VWS V14.00,2013-11-26 04:21:00,
2013-11-25 23:26:00,35.3,32.1,30.29,South,169,1.0,2.0,88,0.02,,---,0.02,VWS V14.00,2013-11-26 04:26:00,
2013-11-25 23:31:00,35.3,32.4,30.29,South,169,0.0,2.0,89,0.02,,---,0.02,VWS V14.00,2013-11-26 04:31:00,
2013-11-25 23:36:00,35.3,32.4,30.28,South,169,0.0,2.0,89,0.02,,---,0.02,VWS V14.00,2013-11-26 04:36:00,
2013-11-25 23:41:00,35.2,32.3,30.28,NE,53,0.0,2.0,89,0.02,,---,0.03,VWS V14.00,2013-11-26 04:41:00,
2013-11-25 23:46:00,35.2,32.6,30.28,NNW,336,0.0,3.0,90,0.02,,---,0.03,VWS V14.00,2013-11-26 04:46:00,
2013-11-25 23:51:00,35.3,32.7,30.27,NNW,336,0.0,3.0,90,0.02,,---,0.03,VWS V14.00,2013-11-26 04:51:00,
2013-11-25 23:56:00,35.4,33.0,30.27,East,85,0.0,3.0,91,0.02,,---,0.03,VWS V14.00,2013-11-26 04:56:00,